Weather History for Meriden, CT

Change the Weather History Date:

Thursday, April 4, 2013

  Actual Average (KHVN) Record (KHVN)
Temperature  
Mean Temperature 38 °F -  
Max Temperature 51 °F 50 °F 67 °F (1974)
Min Temperature 26 °F 36 °F 30 °F (1992)
Degree Days  
Heating Degree Days 27    
Moisture  
Dew Point 20 °F    
Average Humidity 48    
Maximum Humidity 76    
Minimum Humidity 29    
Precipitation  
Precipitation 0.00 in - - ()
Sea Level Pressure  
Sea Level Pressure 30.24 in    
Wind  
Wind Speed 8 mph (SSW)    
Max Wind Speed 18 mph    
Max Gust Speed 24 mph    
Visibility 10 miles    
Events      
Averages and records for this station are not official NWS values.
T = Trace of Precipitation, MM = Missing Value Source: NWS Daily Summary

Daily Weather History Graph

Daily Weather History Graph

Search for Another Location

Airport:

Trip Planner

Search our weather history database for the weather conditions in past years. The results will help you decide how hot, cold, wet, or windy it might be!

Date:

Astronomy

Apr. 04, 2013 Rise Set
Actual Time 6:28 AM EDT 7:20 PM EDT
Civil Twilight 6:00 AM EDT 7:48 PM EDT
Nautical Twilight 5:27 AM EDT 8:21 PM EDT
Astronomical Twilight 4:52 AM EDT 8:56 PM EDT
Moon 2:57 AM EDT (4/4) 1:31 PM EDT (4/4)
Length of Visible Light 13h 47m
Length of Day
12h 51m
Waning Crescent, 34% of the Moon is Illuminated
Apr 4
Waning Crescent
Apr 10
New
Apr 18
First Quarter
Apr 25
Full
May 2
Last Quarter

Hourly Weather History & Observations

Time (EDT) Temp. Windchill Dew Point Humidity Pressure Visibility Wind Dir Wind Speed Gust Speed Precip Events Conditions
12:53 AM 34.0 °F 26.6 °F 10.9 °F 38% 30.27 in 10.0 mi NNW 9.2 mph - N/A   Clear
1:53 AM 33.1 °F 25.5 °F 12.0 °F 42% 30.25 in 10.0 mi NNW 9.2 mph - N/A   Clear
2:53 AM 32.0 °F 26.4 °F 14.0 °F 48% 30.25 in 10.0 mi North 5.8 mph - N/A   Clear
3:53 AM 32.0 °F 25.6 °F 15.1 °F 50% 30.26 in 10.0 mi NNW 6.9 mph - N/A   Clear
4:53 AM 30.0 °F - 17.1 °F 59% 30.30 in 10.0 mi Calm Calm - N/A   Clear
5:53 AM 26.1 °F - 17.1 °F 69% 30.32 in 10.0 mi Calm Calm - N/A   Clear
6:53 AM 26.1 °F - 19.0 °F 75% 30.35 in 10.0 mi Calm Calm - N/A   Clear
7:53 AM 32.0 °F 27.5 °F 17.1 °F 54% 30.38 in 10.0 mi WSW 4.6 mph - N/A   Clear
8:53 AM 36.0 °F 29.0 °F 17.1 °F 46% 30.36 in 10.0 mi NW 9.2 mph - N/A   Clear
9:53 AM 39.0 °F 36.8 °F 17.1 °F 41% 30.34 in 10.0 mi NNW 3.5 mph - N/A   Clear
10:53 AM 43.0 °F 40.3 °F 16.0 °F 34% 30.32 in 10.0 mi Variable 4.6 mph - N/A   Clear
11:53 AM 46.9 °F - 16.0 °F 29% 30.30 in 10.0 mi South 8.1 mph - N/A   Clear
12:53 PM 46.9 °F - 19.9 °F 34% 30.27 in 10.0 mi SSE 12.7 mph - N/A   Clear
1:53 PM 48.0 °F - 19.9 °F 33% 30.25 in 10.0 mi South 16.1 mph 20.7 mph N/A   Clear
2:53 PM 50.0 °F - 19.0 °F 29% 30.21 in 10.0 mi South 11.5 mph - N/A   Clear
3:53 PM 48.9 °F - 19.9 °F 32% 30.17 in 10.0 mi South 16.1 mph 21.9 mph N/A   Clear
4:53 PM 48.0 °F - 19.0 °F 32% 30.16 in 10.0 mi South 13.8 mph - N/A   Clear
5:53 PM 46.0 °F 38.8 °F 18.0 °F 33% 30.15 in 10.0 mi South 18.4 mph - N/A   Clear
6:53 PM 43.0 °F 36.8 °F 23.0 °F 45% 30.16 in 10.0 mi South 11.5 mph 24.2 mph N/A   Clear
7:53 PM 41.0 °F 34.7 °F 27.0 °F 57% 30.17 in 10.0 mi South 10.4 mph 17.3 mph N/A   Clear
8:53 PM 39.9 °F 33.9 °F 27.0 °F 60% 30.15 in 10.0 mi South 9.2 mph - N/A   Clear
9:53 PM 39.0 °F 34.0 °F 28.9 °F 67% 30.13 in 10.0 mi South 6.9 mph - N/A   Clear
10:53 PM 37.9 °F 32.7 °F 30.9 °F 76% 30.12 in 10.0 mi South 6.9 mph - N/A   Clear
11:53 PM 37.9 °F 34.4 °F 30.9 °F 76% 30.10 in 10.0 mi South 4.6 mph - N/A   Clear